Flag for India Weather past 2 weeks in Navi Mumbai, Maharashtra, India

Now
86 °F

Passing clouds.


Feels Like: 86 °F
Forecast: 71 / 97 °F
Wind: 6 mph from Northwest

Location: Ahmadabad Airport

Current Time: Apr 1, 2015 at 10:50:34 AM

Latest Report: Apr 1, 2015 at 9:40 AM


Visibility: 2 mi

Pressure: 29.86 "Hg

Humidity: 43%

Dew point: 61 °F

Location of Navi MumbaiLocation

Historic Weather in Navi Mumbai — Graph

°F

Navi Mumbai temperature yesterday

Maximum temperature yesterday: 100 °F (at 2:40 PM)
Minimum temperature yesterday: 72 °F (at 6:40 AM)
Average temperature yesterday: 85 °F

Past Weeks' High & Low Weather Summary

 TemperatureHumidityPressure
High111 °F (Mar 25, 4:40 PM)70% (Mar 27, 7:40 AM)30.07 "Hg (Mar 27, 7:40 AM)
Low64 °F (Mar 18, 5:40 AM)13% (Mar 23, 3:40 PM)29.68 "Hg (Mar 30, 4:40 PM)
Average88 °F32%29.84 "Hg
* Reported Mar 17 7:40 AM — Apr 1 7:40 AM, Navi Mumbai, Weather by CustomWeather, © 2015

Note: Actual official high and low records may vary slightly from our data, if they occured in-between our weather recording intervals... More about our weather records

Advertising

Navi Mumbai weather history for previous 24 hours

 ConditionsComfort  
Time TempWeatherWind HumidityBarometerVisibility
7:40 AM
Wed, Apr 1
77 °FClear.6 mph57%29.83 "Hg1 mi
5:40 AM75 °FClear.5 mph50%29.80 "Hg2 mi
4:40 AM79 °FClear.3 mph42%29.77 "Hg2 mi
3:40 AM77 °FClear.5 mph39%29.77 "Hg2 mi
2:40 AM77 °FClear.5 mph39%29.77 "Hg2 mi
1:40 AM79 °FClear.7 mph37%29.80 "Hg2 mi
12:40 AM81 °FClear.7 mph37%29.80 "Hg2 mi
11:40 PM
Tue, Mar 31
81 °FClear.6 mph42%29.80 "Hg2 mi
10:40 PM84 °FClear.9 mph35%29.80 "Hg2 mi
9:40 PM88 °FClear.9 mph29%29.80 "Hg2 mi
8:40 PM90 °FClear.No wind26%29.77 "Hg2 mi
7:40 PM90 °FPassing clouds.No wind24%29.74 "Hg2 mi
6:40 PM95 °FPassing clouds.3 mph20%29.74 "Hg2 mi
5:40 PM99 °FClear.5 mph17%29.74 "Hg4 mi
2:40 PM100 °FClear.5 mph15%29.74 "Hg4 mi
1:40 PM99 °FClear.6 mph18%29.80 "Hg4 mi
12:40 PM95 °FClear.6 mph23%29.83 "Hg4 mi
11:40 AM93 °FClear.6 mph24%29.86 "Hg4 mi
10:40 AM88 °FClear.5 mph33%29.86 "Hg4 mi
Weather by CustomWeather, © 2015

See weather overviewHow to use our weather pages